Weather History for Flagstaff, AZ

Change the Weather History Date:

Friday, November 18, 2011

  Actual Average Record
Temperature  
Mean Temperature 37 °F 36 °F  
Max Temperature 49 °F 49 °F 68 °F (1898)
Min Temperature 25 °F 22 °F -13 °F (1958)
Degree Days  
Heating Degree Days 28 29  
Month to date heating degree days 544 472  
Since 1 July heating degree days 1285 1355  
Cooling Degree Days 0 0  
Month to date cooling degree days 0 0  
Year to date cooling degree days 170 117  
Moisture  
Dew Point 30 °F    
Average Humidity 71    
Maximum Humidity 92    
Minimum Humidity 49    
Precipitation  
Precipitation 0.00 in 0.06 in 0.66 in (1973)
Month to date precipitation 1.67 1.02  
Year to date precipitation 18.42 19.25  
Snow  
Snow 0.00 in 0.40 in 6.50 in (1994)
Month to date snowfall 12.5 4.9  
Since 1 July snowfall 12.5 6.4  
Snow Depth 0.00 in    
Sea Level Pressure  
Sea Level Pressure 29.88 in    
Wind  
Wind Speed 13 mph (SW)    
Max Wind Speed 26 mph    
Max Gust Speed 32 mph    
Visibility 10 miles    
Events      
T = Trace of Precipitation, MM = Missing Value Source: NWS Daily Summary

Daily Weather History Graph

Daily Weather History Graph

Search for Another Location

Airport:

Trip Planner

Search our weather history database for the weather conditions in past years. The results will help you decide how hot, cold, wet, or windy it might be!

Date:

Astronomy

Nov. 18, 2011 Rise Set
Actual Time 7:04 AM MST 5:19 PM MST
Civil Twilight 6:37 AM MST 5:46 PM MST
Nautical Twilight 6:06 AM MST 6:17 PM MST
Astronomical Twilight 5:36 AM MST 6:47 PM MST
Moon No Moon Rise 12:52 PM MST (11/18)
Length of Visible Light 11h 09m
Length of Day
10h 14m
Waning Gibbous, 48% of the Moon is Illuminated
Nov 18
Waning Gibbous
Nov 24
New
Dec 2
First Quarter
Dec 10
Full
Dec 17
Last Quarter

Hourly Weather History & Observations

Time (MST) Temp. Windchill Dew Point Humidity Pressure Visibility Wind Dir Wind Speed Gust Speed Precip Events Conditions
12:57 AM 27.0 °F - 21.9 °F 81% 29.94 in 10.0 mi Calm Calm - N/A   Clear
1:57 AM 27.0 °F 23.0 °F 25.0 °F 92% 29.94 in 10.0 mi WSW 3.5 mph - N/A   Clear
2:57 AM 26.1 °F - 24.1 °F 92% 29.93 in 10.0 mi Calm Calm - N/A   Clear
3:57 AM 26.1 °F 21.9 °F 24.1 °F 92% 29.92 in 10.0 mi WSW 3.5 mph - N/A   Clear
4:57 AM 32.0 °F 25.6 °F 28.0 °F 85% 29.90 in 10.0 mi WSW 6.9 mph - N/A   Clear
5:57 AM 30.0 °F 24.1 °F 28.0 °F 92% 29.94 in 10.0 mi WSW 5.8 mph - N/A   Clear
6:57 AM 32.0 °F 25.6 °F 28.0 °F 85% 29.96 in 10.0 mi WSW 6.9 mph - N/A   Clear
7:57 AM 33.1 °F 26.9 °F 28.9 °F 85% 29.97 in 10.0 mi WSW 6.9 mph - N/A   Clear
8:57 AM 39.0 °F 31.8 °F 32.0 °F 76% 29.95 in 10.0 mi SW 11.5 mph - N/A   Clear
9:57 AM 42.1 °F 34.9 °F 30.9 °F 65% 29.94 in 10.0 mi SW 13.8 mph - N/A   Clear
10:57 AM 44.1 °F 35.9 °F 30.9 °F 60% 29.92 in 10.0 mi SW 19.6 mph 27.6 mph N/A   Clear
11:57 AM 46.0 °F 38.5 °F 30.0 °F 54% 29.89 in 10.0 mi SSW 19.6 mph 26.5 mph N/A   Clear
12:57 PM 46.9 °F - 30.9 °F 54% 29.86 in 10.0 mi SSW 24.2 mph 32.2 mph N/A   Clear
1:57 PM 46.9 °F - 30.9 °F 54% 29.85 in 10.0 mi SW 20.7 mph 26.5 mph N/A   Clear
2:57 PM 46.9 °F - 30.9 °F 54% 29.84 in 10.0 mi SSW 18.4 mph 26.5 mph N/A   Clear
3:57 PM 46.9 °F - 28.9 °F 50% 29.82 in 10.0 mi SW 16.1 mph 32.2 mph N/A   Clear
4:57 PM 44.1 °F 36.8 °F 28.0 °F 53% 29.81 in 10.0 mi WSW 16.1 mph 32.2 mph N/A   Clear
5:57 PM 41.0 °F 32.8 °F 28.0 °F 60% 29.84 in 10.0 mi SW 16.1 mph 19.6 mph N/A   Clear
6:57 PM 39.9 °F 32.5 °F 28.0 °F 63% 29.84 in 10.0 mi SW 12.7 mph 19.6 mph N/A   Clear
7:57 PM 39.0 °F 32.3 °F 28.9 °F 67% 29.84 in 10.0 mi WSW 10.4 mph - N/A   Clear
8:57 PM 37.9 °F 30.9 °F 30.0 °F 73% 29.81 in 10.0 mi WSW 10.4 mph 18.4 mph N/A   Clear
9:57 PM 37.9 °F 28.5 °F 30.9 °F 76% 29.79 in 10.0 mi SSW 17.3 mph 27.6 mph N/A   Scattered Clouds
10:04 PM 37.4 °F 26.9 °F 32.0 °F 81% 29.91 in 10.0 mi SSW 20.7 mph 27.6 mph N/A   Mostly Cloudy
10:31 PM 37.4 °F 27.5 °F 32.0 °F 81% 29.92 in 10.0 mi SW 18.4 mph 29.9 mph N/A   Scattered Clouds
10:57 PM 37.9 °F 28.5 °F 32.0 °F 79% 29.79 in 10.0 mi SSW 17.3 mph 24.2 mph N/A   Scattered Clouds
11:04 PM 37.4 °F 26.4 °F 32.0 °F 81% 29.91 in 10.0 mi SW 23.0 mph 32.2 mph N/A   Mostly Cloudy
11:27 PM 37.4 °F 26.9 °F 33.8 °F 87% 29.91 in 10.0 mi SSW 20.7 mph 31.1 mph N/A   Scattered Clouds
11:37 PM 37.4 °F 27.2 °F 33.8 °F 87% 29.90 in 10.0 mi SSW 19.6 mph 29.9 mph N/A   Mostly Cloudy
11:57 PM 37.9 °F 26.8 °F 33.1 °F 83% 29.78 in 10.0 mi SW 24.2 mph 31.1 mph N/A   Mostly Cloudy